Tracking 19176 objects as of 26-May-2018
HD Live streaming from Space Station
objects crossing your sky now

GORIZONT 19

Track GORIZONT 19 now!
GORIZONT 19 is classified as:


NORAD ID: 20263
Int'l Code: 1989-081A
Perigee: 35,757.6 km
Apogee: 35,801.7 km
Inclination: 14.8 °
Period: 1,435.4 minutes
Semi major axis: 42150 km
RCS: 7.9432 m2 (large)
Launch date: September 28, 1989
Source: Commonwealth of Independent States (former USSR) (CIS)
Launch site: TYURATAM MISSILE AND SPACE COMPLEX (TTMTR)
aabbcc
Your satellite tracking list
Your tracking list is empty




NASA's NSSDC Master Catalog

Two Line Element Set (TLE):
1 20263U 89081A   18145.52245359 -.00000371 +00000-0 +00000-0 0  9995
2 20263 014.8067 357.9583 0005226 264.5306 274.1174 01.00322119017814
Source of the keplerian elements: AFSPC